AB8KN-2 Weather Reports


Display with metric or nautical units.
time (UTC)temp
F
wind
direction
speed
MPH
gust
MPH
rain 1hr
in
rain 24hr
in
rain mn
in
humidity
%
barometer
mb
20260906000017 79 286 0.0 2.0 0.00 1.06 1.06 79 1013.2
20260905235017 80 274 0.0 1.0 0.00 1.06 1.06 78 1013.2
20260905234017 80 293 0.0 1.0 0.00 1.06 1.06 77 1013.2
20260905233017 80 288 0.0 3.0 0.00 1.06 1.06 76 1013.1
20260905232017 81 279 0.0 3.0 0.00 1.06 1.06 75 1013.1
20260905231018 81 292 1.0 2.0 0.00 1.06 1.06 75 1012.9
20260905230018 81 294 0.0 2.0 0.00 1.06 1.06 74 1012.6
20260905225018 82 304 0.0 1.0 0.00 1.06 1.06 74 1012.6
20260905224016 82 260 0.0 2.0 0.00 1.06 1.06 73 1012.5
20260905223015 82 262 0.0 2.0 0.00 1.06 1.06 73 1012.3
20260905222016 83 293 0.0 2.0 0.00 1.06 1.06 72 1012.4
20260905221016 83 280 1.0 4.0 0.00 1.06 1.06 70 1012.5
20260905220016 83 285 0.0 3.0 0.00 1.06 1.06 70 1012.6
20260905215016 83 301 0.0 2.0 0.00 1.06 1.06 69 1012.6
20260905214016 84 283 1.0 4.0 0.00 1.06 1.06 68 1012.6
20260905213036 85 304 0.0 2.0 0.00 1.06 1.06 68 1012.5
20260905212036 86 296 1.0 5.0 0.00 1.06 1.06 65 1012.6
20260905211017 86 274 1.0 3.0 0.00 1.06 1.06 65 1012.6
20260905210017 86 314 1.0 3.0 0.00 1.06 1.06 64 1012.5
20260905205017 85 313 1.0 3.0 0.00 1.06 1.06 65 1012.6
20260905204037 85 290 2.0 7.0 0.00 1.06 1.06 64 1012.7
20260905203017 83 283 3.0 7.0 0.00 1.06 1.06 66 1012.9
20260905202018 82 260 0.0 3.0 0.00 1.06 1.06 70 1013.1
20260905201038 82 289 2.0 6.0 0.00 1.06 1.06 71 1013.1
20260905200015 82 281 3.0 9.0 0.00 1.06 1.06 70 1013.1
20260905195035 82 286 1.0 6.0 0.00 1.06 1.06 71 1013.2
20260905194015 82 276 1.0 4.0 0.00 1.06 1.06 71 1013.3
20260905193016 82 282 2.0 5.0 0.00 1.06 1.06 71 1013.4
20260905192016 82 280 3.0 6.0 0.00 1.06 1.06 70 1013.6
20260905191016 82 286 2.0 6.0 0.00 1.06 1.06 69 1013.6
20260905190016 82 282 2.0 7.0 0.00 1.06 1.06 70 1013.7
20260905185016 81 290 1.0 5.0 0.00 1.06 1.06 71 1013.8
20260905184016 81 278 1.0 5.0 0.00 1.06 1.06 70 1013.9
20260905183016 82 271 2.0 5.0 0.00 1.06 1.06 69 1013.9
20260905182036 82 289 1.0 2.0 0.00 1.06 1.06 69 1013.9
20260905181017 82 275 1.0 3.0 0.00 1.06 1.06 69 1013.9
20260905180017 82 83 0.0 2.0 0.00 1.06 1.06 69 1013.9
20260905175017 82 271 0.0 2.0 0.00 1.06 1.06 69 1014.0
20260905174017 83 282 2.0 4.0 0.00 1.06 1.06 68 1014.0
20260905173057 83 75 1.0 3.0 0.00 1.06 1.06 67 1014.1
20260905172037 82 285 1.0 3.0 0.00 1.06 1.06 68 1014.2
20260905171018 81 283 0.0 2.0 0.00 1.06 1.06 72 1014.3
20260905170015 80 292 1.0 4.0 0.00 1.06 1.06 72 1014.3
20260905165015 80 264 2.0 4.0 0.00 1.06 1.06 74 1014.3
20260905164016 79 98 1.0 4.0 0.00 1.09 1.06 77 1014.3
20260905163015 78 90 0.0 3.0 0.00 1.12 1.06 78 1014.3
20260905162036 78 270 1.0 3.0 0.00 1.12 1.06 79 1014.3
20260905161016 78 70 0.0 2.0 0.00 1.12 1.06 78 1014.3
20260905160016 77 281 0.0 4.0 0.00 1.13 1.06 78 1014.2
20260905155016 77 96 0.0 2.0 0.00 1.19 1.06 80 1014.1
20260905154037 76 46 1.0 4.0 0.00 1.19 1.06 83 1014.1
20260905153016 75 56 1.0 3.0 0.00 1.20 1.06 87 1014.1
20260905152017 74 341 1.0 6.0 0.00 1.25 1.06 89 1013.9
20260905151017 74 58 1.0 1.0 0.00 1.26 1.06 90 1013.9
20260905150017 73 57 1.0 4.0 0.00 1.27 1.06 90 1014.0
20260905145018 73 48 1.0 4.0 0.00 1.27 1.06 92 1014.0
20260905144017 73 44 1.0 3.0 0.00 1.29 1.06 94 1013.9
20260905143017 72 52 1.0 1.0 0.00 1.29 1.06 96 1013.7
20260905142018 71 47 1.0 1.0 0.00 1.29 1.06 96 1013.5
20260905141018 70 54 1.0 2.0 0.00 1.29 1.06 97 1013.5
20260905140019 70 49 1.0 2.0 0.00 1.29 1.06 97 1013.6
20260905135019 69 48 1.0 2.0 0.00 1.29 1.06 97 1013.7
20260905134019 69 52 1.0 2.0 0.00 1.29 1.06 98 1013.9
20260905133019 69 49 2.0 2.0 0.00 1.29 1.06 98 1013.9
20260905132019 69 59 1.0 2.0 0.00 1.29 1.06 98 1014.0
20260905131019 69 49 1.0 2.0 0.00 1.29 1.06 98 1013.9
20260905130019 69 52 2.0 2.0 0.01 1.29 1.06 98 1013.9
20260905125019 69 57 1.0 2.0 0.03 1.29 1.06 98 1014.4
20260905124020 69 49 1.0 2.0 0.07 1.29 1.06 98 1014.3
20260905123020 69 51 1.0 2.0 0.09 1.29 1.06 97 1014.8
20260905122020 69 47 1.0 2.0 0.12 1.29 1.06 97 1014.9
20260905121142 69 78 2.0 2.0 0.14 1.29 1.06 97 1014.7
20260905120041 69 64 1.0 2.0 0.16 1.28 1.06 97 1014.0
20260905115020 69 79 2.0 2.0 0.17 1.26 1.03 97 1014.5
20260905114021 69 83 1.0 3.0 0.17 1.22 0.99 97 1014.8
20260905113021 69 123 2.0 3.0 0.17 1.20 0.97 97 1014.8
20260905112021 69 97 1.0 2.0 0.19 1.17 0.94 97 1015.0
20260905111021 69 61 1.0 2.0 0.20 1.15 0.92 97 1015.5
20260905110021 69 47 2.0 2.0 0.21 1.13 0.90 97 1015.5
20260905105021 69 51 1.0 2.0 0.19 1.09 0.86 97 1016.0
20260905104021 69 49 2.0 2.0 0.16 1.06 0.83 97 1015.8
20260905103016 69 60 1.0 3.0 0.35 1.03 0.80 97 1015.3
20260905102016 69 57 1.0 4.0 0.47 0.98 0.75 97 1015.2
20260905101016 69 48 1.0 2.0 0.44 0.95 0.72 97 1015.1
20260905100016 69 33 2.0 9.0 0.41 0.91 0.69 97 1015.0
20260905095016 70 62 2.0 5.0 0.41 0.90 0.67 97 1015.2
20260905094057 70 53 1.0 9.0 0.49 0.90 0.67 96 1015.3
20260905093017 71 16 2.0 13.0 0.44 0.68 0.45 96 1015.4
20260905092017 71 8 0.0 5.0 0.27 0.51 0.28 96 1014.3
20260905091037 71 103 0.0 1.0 0.27 0.51 0.28 96 1013.7
20260905090017 71 234 1.0 3.0 0.27 0.51 0.28 95 1013.9
20260905085017 71 0.0 0.0 0.27 0.49 0.27 94 1013.3
20260905084017 72 16 1.0 5.0 0.18 0.41 0.18 92 1013.7
20260905083018 73 290 2.0 10.0 0.01 0.24 0.01 92 1014.6
20260905082016 74 330 1.0 5.0 0.01 0.24 0.01 94 1014.2
20260905081015 74 352 0.0 2.0 0.00 0.23 0.00 94 1014.0
20260905080018 74 297 1.0 5.0 0.00 0.23 0.00 94 1014.0
20260905075038 74 40 0.0 2.0 0.00 0.23 0.00 94 1014.0
20260905074015 74 27 0.0 1.0 0.00 0.23 0.00 95 1013.6
20260905073015 73 91 1.0 3.0 0.00 0.23 0.00 95 1013.0
20260905072016 73 313 1.0 3.0 0.00 0.23 0.00 96 1013.7
20260905071016 73 69 0.0 1.0 0.00 0.23 0.00 96 1013.7
20260905070016 73 112 0.0 1.0 0.00 0.23 0.00 96 1013.7
20260905065016 73 107 0.0 1.0 0.00 0.23 0.00 96 1013.6
20260905064016 73 96 0.0 1.0 0.00 0.23 0.00 96 1013.6
20260905063016 73 91 0.0 1.0 0.00 0.23 0.00 96 1013.8
20260905062017 73 111 0.0 1.0 0.00 0.23 0.00 96 1013.7
20260905061017 73 121 0.0 1.0 0.00 0.23 0.00 96 1013.9
20260905060017 72 0.0 0.0 0.00 0.23 0.00 96 1014.0
20260905055017 72 157 0.0 0.0 0.00 0.23 0.00 96 1014.2
20260905054017 72 92 0.0 2.0 0.00 0.23 0.00 95 1014.2
20260905053017 72 74 0.0 1.0 0.00 0.23 0.00 95 1014.3
20260905052018 72 89 0.0 1.0 0.00 0.23 0.00 95 1014.5
20260905051018 72 209 0.0 3.0 0.00 0.23 0.00 95 1014.5
20260905050018 72 0.0 0.0 0.00 0.23 0.00 95 1014.5
20260905045018 72 68 0.0 0.0 0.00 0.23 0.00 95 1014.7
20260905044016 72 103 0.0 1.0 0.00 0.23 0.00 95 1014.8
20260905043017 72 64 0.0 1.0 0.00 0.23 0.00 95 1014.8
20260905042016 73 116 0.0 0.0 0.00 0.23 0.00 95 1014.9
20260905041016 73 77 0.0 0.0 0.00 0.23 0.00 95 1014.9
20260905040017 73 0.0 0.0 0.00 0.23 0.00 94 1014.9
20260905035017 73 0.0 0.0 0.00 0.23 0.23 94 1014.9
20260905034037 73 50 0.0 1.0 0.00 0.23 0.23 94 1014.9
20260905033017 73 0.0 0.0 0.00 0.23 0.23 94 1015.0
20260905032017 73 0.0 0.0 0.00 0.23 0.23 94 1015.0
20260905031017 73 0.0 0.0 0.00 0.23 0.23 94 1015.1
20260905030018 73 291 0.0 1.0 0.00 0.23 0.23 93 1015.0
20260905025018 73 59 0.0 0.0 0.00 0.23 0.23 93 1015.0
20260905024018 73 56 0.0 1.0 0.00 0.23 0.23 93 1015.1
20260905023015 74 91 0.0 1.0 0.00 0.23 0.23 93 1015.1
20260905022015 74 75 0.0 0.0 0.00 0.23 0.23 92 1015.0
20260905021015 74 0.0 0.0 0.00 0.23 0.23 92 1015.0
20260905020016 74 51 0.0 0.0 0.00 0.23 0.23 91 1015.0
20260905015036 74 45 0.0 1.0 0.00 0.23 0.23 91 1014.9
20260905014016 75 0.0 0.0 0.00 0.23 0.23 90 1014.8
20260905013016 75 359 0.0 1.0 0.00 0.23 0.23 89 1014.9
20260905012016 75 42 0.0 0.0 0.00 0.23 0.23 89 1014.8
20260905011016 75 0.0 0.0 0.00 0.23 0.23 88 1014.7
20260905010017 76 58 0.0 1.0 0.00 0.23 0.23 87 1014.7
20260905005017 76 284 0.0 2.0 0.00 0.23 0.23 87 1014.7
20260905004017 77 0.0 0.0 0.00 0.23 0.23 86 1014.5
20260905003017 77 0.0 0.0 0.00 0.23 0.23 84 1014.3
20260905002018 78 0.0 0.0 0.00 0.23 0.23 83 1014.3
20260905001017 79 0.0 0.0 0.00 0.23 0.23 81 1014.3